{"data":{"norad_id":65443,"epoch":"2026-09-20T13:07:37.890912Z","epoch_age_seconds":110777,"freshness":"FRESH","line1":"1 65443U 25194K   26263.54696633  .00010838  00000+0  33746-3 0  9999","line2":"2 65443  97.2829 113.1686 0002293 100.5043 259.6459 15.33453515 59072","mean_motion":15.33453515,"eccentricity":0.0002293,"inclination_deg":97.2829,"raan_deg":113.1686,"arg_perigee_deg":100.5043,"mean_anomaly_deg":259.6459,"bstar":0.00033746,"rev_number":5907,"period_min":93.905683212054,"perigee_km":463.94858989138,"apogee_km":467.08709000097,"semimajor_km":6843.6548399462,"source":"CELESTRAK","updated_at":"2026-09-21T09:00:35.610186Z"}}